Regional Weather Roundup
Issued by NWS

Home | Current Version | Previous Version | Graphics & Text | Print | Product List | Glossary On
Versions: 1 2 3 4 5 6 7 8 9 10 11 12 13 14 15 16 17 18 19 20 21 22 23 24 25 26 27 28 29 30 31 32 33 34 35 36 37 38 39 40 41 42 43 44 45 46 47 48 49 50
000
ASUS43 KLSX 281007
RWRMO

WEATHER SUMMARY FOR MISSOURI
NATIONAL WEATHER SERVICE SPRINGFIELD MO
400 AM CST SAT FEB 28 2015

NOTE: "FAIR" INDICATES FEW OR NO CLOUDS BELOW 12,000 FEET WITH NO
       SIGNIFICANT WEATHER AND/OR OBSTRUCTIONS TO VISIBILITY.
       CURRENT SKY AND/OR WEATHER CONDITIONS ARE NOT AVAILABLE FOR
       CHILLICOTHE AND FARMINGTON.

MOZ001>031-035>038-043-044-053-054-281100-
...NORTHERN AND WESTERN MISSOURI...

CITY           SKY/WX    TMP DP  RH WIND       PRES   REMARKS
KANSAS CTY INT PTCLDY    15   7  70 SE7       30.50F WCI   5
KANSAS C DTWN  CLOUDY    17   8  67 E6        30.53S WCI   9
LEE`S SUMMIT   CLOUDY    16   8  71 E7        30.51S WCI   6
ST JOSEPH      CLOUDY    15   6  67 SE8       30.53F WCI   4
CHILLICOTHE      N/A     14   5  67 SE5       30.57F WCI   6
KIRKSVILLE     CLOUDY    11   3  70 SE8       30.57S WCI  -1

$$
MOZ066>068-077>081-088>096-101>105-281100-
...SOUTHWEST MISSOURI...

CITY           SKY/WX    TMP DP  RH WIND       PRES   REMARKS
SPRINGFIELD    CLOUDY    20   9  62 SE7       30.47S WCI  11
JOPLIN         CLOUDY    20  12  71 E10       30.48F WCI   9

$$
MOZ032>034-039>042-045>050-055>058-069>072-281100-
...CENTRAL MISSOURI...

CITY           SKY/WX    TMP DP  RH WIND       PRES   REMARKS
COLUMBIA       FLURRIES  16  10  77 E8        30.56F WCI   5
JEFFERSON CITY CLOUDY    18   9  68 E8        30.59F WCI   8
ROLLA          CLOUDY    18   6  59 E8        30.51F WCI   8
SEDALIA        CLOUDY    18   6  59 E8        30.55S WCI   8
WHITEMAN AFB   CLOUDY    17   7  64 E8        30.52S WCI   7
WARRENSBURG    CLOUDY    19  10  68 E6        30.54S WCI  11
OSAGE BEACH    CLOUDY    21   5  49 E6        30.53S WCI  14

$$
MOZ051-052-059>065-281100-
...EAST CENTRAL MISSOURI...

CITY           SKY/WX    TMP DP  RH WIND       PRES   REMARKS
ST LOUIS INTL  CLOUDY    15   4  61 E6        30.64R WCI   6
SPIRIT OF STL  CLOUDY    16   3  56 E3        30.63R
ST CHARLES     CLOUDY    14   4  64 E8        30.65R WCI   3

$$
MOZ072>076-082>087-097>100-106>115-281100-
...SOUTH CENTRAL AND SOUTHEAST MISSOURI...

CITY           SKY/WX    TMP DP  RH WIND       PRES   REMARKS
CAPE GIRARDEAU CLOUDY    20  11  68 NE12      30.62S WCI   8
FARMINGTON     CLOUDY    18  10  73 E8        30.60S WCI   7
POPLAR BLUFF   LGT SNOW  20  13  74 NE12      30.59F WCI   8
WEST PLAINS    CLOUDY    19   8  62 E7        30.52R WCI  10

$$



USA.gov is the U.S. government's official web portal to all federal, state and local government web resources and services.